Погода в Чувашевой Горе

Россия / Новгородская область     58°20′39″N   34°56′55″E
темп.,
°C
ветер,
м/с
пор.,
м/с
влажн.,
%
обл.,
%
осадки,
мм/ч
давл.,
гПа
погр.,
м
23 сентября, чт
чт2300:00+5всв2897100 0.2 1016460
03:00+5в2698100 0.3 1015396
06:00+5вюв269997 0.0 1016341
09:00+6вюв3594100 0.0 1015456
12:00+8вюв3687100 0.0 1014600
15:00+7в2798100 2.1 1012491
18:00+8юв3898100 0.3 1010625
21:00+7юв2799100 0.8 1008447
24 сентября, пт
пт2400:00+7ю389493 0.1 1006622
03:00+6юв389598 0.1 1004359
06:00+6юв4998100 0.1 1002594
09:00+7юв4119095 0.2 1002957
12:00+9ююв51067100 0.1 10011522
15:00+9юв5966100 0.1 10011303
18:00+8юв4975100 0.0 1002903
21:00+7юв4983100 0.1 10031042
25 сентября, сб
сб2500:00+7юв3981100 0.1 1003850
03:00+7юв3987100 0.1 1004591
06:00+7юв4991100 0.1 1004619
09:00+8ююв4989100 0.1 1004640
12:00+9ююв4983100 0.0 1004753
15:00+8ююв3989100 0.4 1004664
18:00+8ююв3995100 1.3 1004611
21:00+8ююз2698100 2.9 1005444
26 сентября, вс
вс2600:00+7з3798100 0.9 1005484
03:00+7з2798100 1.2 1006478
06:00+7зсз3896100 0.6 1007556
09:00+7сз3896100 1.1 1009617
12:00+8ссз4995100 0.3 1011694
15:00+8ссз4993100 0.4 1015634
18:00+8с389583 0.0 1017483
21:00+8с389699 0.1 1020427
27 сентября, пн
пн2700:00+8с279796 0.0 1022259
03:00+7ссв259765 0.0 1024131
06:00+7с259652 0.0 1025174
09:00+8ссв2792100 0.0 1027288
12:00+11ссв357643 0.0 1028820
15:00+12ссв4563100 0.0 10281285
18:00+9ссв258174 0.0 1029112
21:00+6св27965 0.0 1030164